Location: Arlington
(31.4185°N, 90.5568°W)
Time: 11:08:01
(UTC+00:00)

ISS - Pass Details

Date: 07 October 2021
Orbit: 417 x 423 km, 51.6° (Epoch: 18 October)

Event Time Altitude Azimuth Distance (km) Brightness Sun altitude
Rises 01:23:56 0° 307° (NW) 2,359 1.0 -22.8°
Reaches altitude 10° 01:26:07 10° 300° (WNW) 1,494 0.0 -23.3°
Enters shadow 01:28:54 38° 247° (WSW) 656 -2.4 -23.9°
